Regional Weather Roundup
Issued by NWS

Home | Current Version | Previous Version | Text Only | Print | Product List | Glossary Off
Versions: 1 2 3 4 5 6 7 8 9 10 11 12 13 14 15 16 17 18 19 20 21 22 23 24 25 26 27 28 29 30 31 32 33 34 35 36 37 38 39 40 41 42 43 44 45 46 47 48 49 50

000
ASUS43 KMKX 242311
RWRWI

WISCONSIN REGIONAL WEATHER ROUNDUP
NATIONAL WEATHER SERVICE MILWAUKEE/SULLIVAN WI
600 PM CDT MON APR 24 2017

NOTE: "FAIR" INDICATES FEW OR NO CLOUDS BELOW 12,000 FEET WITH NO
SIGNIFICANT WEATHER AND/OR OBSTRUCTIONS TO VISIBILITY.

WIZ001-002-006>008-014>016-023>028-250000-
NORTHWEST WISCONSIN

CITY           SKY/WX    TMP DP  RH WIND       PRES   REMARKS
SUPERIOR ARPT  CLOUDY    37  34  89 E21G29    29.72S WCI  26
ASHLAND        CLOUDY    41  33  73 NE15G23   29.72S
HAYWARD        CLOUDY    64  30  27 S13       29.66F
SIREN          CLOUDY    67  29  24 S15       29.62F
CUMBERLAND     CLOUDY    63  34  34 SE7       29.65F
RICE LAKE      CLOUDY    66  30  26 SE10G23   29.66F
CHETEK         CLOUDY    65  32  28 S14       29.66F
LADYSMITH      CLOUDY    65  32  29 S8G18     29.71S
EAU CLAIRE     CLOUDY    68  30  24 S9        29.66F
MENOMONIE      CLOUDY    67  33  27 SE12      29.64F
NEW RICHMOND   CLOUDY    66  29  25 SE10G18   29.62F
OSCEOLA        CLOUDY    66  31  27 SE9       29.63F
$$

WIZ003>005-009-010-017-018-250000-
NORTH CENTRAL WISCONSIN

CITY           SKY/WX    TMP DP  RH WIND       PRES   REMARKS
MANITOWISH WTR CLOUDY    61  32  33 S12G20    29.72S
ARBOR VITAE    CLOUDY    62  32  32 SE13G22   29.73S
WOODRUFF       CLOUDY    62  32  32 SE13G22   29.73S
RHINELANDER    CLOUDY    63  35  35 S13       29.75F
EAGLE RIVER    CLOUDY    60  30  31 S8        29.75S
LAND O LAKES   CLOUDY    63  28  26 S12G23    29.76S
PHILLIPS       CLOUDY    63  32  31 S13       29.71S
TOMAHAWK       CLOUDY    62  33  34 SE3       29.74S
MEDFORD        PTSUNNY   62  35  36 SE9       29.71F
MERRILL        CLOUDY    65  33  30 S8G20     29.74S
$$

WIZ029-030-035-036-043>047-250000-
CENTRAL WISCONSIN

CITY           SKY/WX    TMP DP  RH WIND       PRES   REMARKS
WAUSAU         CLOUDY    66  33  29 SE12      29.72F
MOSINEE        PTSUNNY   66  28  24 SE10G23   29.74F
MARSHFIELD     MOSUNNY   67  29  24 S13       29.71S
STEVENS POINT  CLOUDY    67  29  24 S13       29.74S
WAUPACA        MOSUNNY   70  30  22 SE10      29.75F
WAUTOMA        CLOUDY    70  30  22 SE16      29.74F
WISC RAPIDS    NOT AVBL
CAMP DOUGLAS   CLOUDY    70  30  23 SE12G21   29.71S
$$

WIZ011>013-019>022-031-037>040-048>050-250000-
NORTHEAST WISCONSIN

CITY           SKY/WX    TMP DP  RH WIND       PRES   REMARKS
ANTIGO         CLOUDY    61  36  40 SE15      29.76F
SHAWANO        CLOUDY    63  45  51 E9        29.79F
OCONTO         CLOUDY    50  40  68 E8        29.82F
STURGEON BAY   MOSUNNY   48  37  65 E7        29.86F
GREEN BAY      CLOUDY    64  35  34 SE22      29.81F
MANITOWOC      CLOUDY    58  31  35 S8        29.84F
APPLETON       PTSUNNY   64  30  27 SE17G24   29.78F
CLINTONVILLE   CLOUDY    66  32  28 SE13      29.77F
OSHKOSH        CLOUDY    64  34  32 SE17      29.78F
$$

WIZ032>034-041-042-053>061-250000-
SOUTHWEST WISCONSIN

CITY           SKY/WX    TMP DP  RH WIND       PRES   REMARKS
LA CROSSE      MOSUNNY   71  30  21 S16G22    29.65F
SPARTA         CLOUDY    70  29  21 SE7       29.70F
VIROQUA        MOSUNNY   67  29  24 S14       29.70F
BOSCOBEL       PTSUNNY   74  24  15 VRB6G20   29.69F
PRAIRIE DU CHI CLOUDY    72  22  15 SE13G21   29.67F
PLATTEVILLE    SUNNY     72  26  18 SE18      29.71F
$$

WIZ056-057-062-063-064-067-068-250000-
SOUTH CENTRAL WISCONSIN

CITY           SKY/WX    TMP DP  RH WIND       PRES   REMARKS
REEDSBURG      MOSUNNY   70  31  23 SE8G16    29.72F
BARABOO/DELLS  MOSUNNY   69  27  20 S12G17    29.73F
LONE ROCK      CLOUDY    71  30  21 SE14G23   29.71F
MINERAL POINT  CLOUDY    72  19  14 S14G21    29.72F
MADISON        CLOUDY    70  27  20 SE16      29.74F
MIDDLETON      CLOUDY    72  22  15 S16       29.74F
WATERTOWN      CLOUDY    65  32  28 E12       29.78F
MONROE         MOSUNNY   72  27  18 SE20G25   29.74F
JANESVILLE     PTSUNNY   72  25  17 SE17G23   29.76F
$$

WIZ051-052-058>065-066-070>072-250000-
SOUTHEAST WISCONSIN

CITY           SKY/WX    TMP DP  RH WIND       PRES   REMARKS
MILWAUKEE      PTSUNNY   63  33  32 SE12      29.83F
WAUKESHA       SUNNY     64  28  25 SE12G23   29.82F
MILWAUKEE/TIMM SUNNY     66  23  19 SE12G17   29.83F
RACINE         CLOUDY    61  32  33 E7        29.85F
KENOSHA        CLOUDY    63  35  35 E8        29.83F
FOND DU LAC    CLOUDY    65  31  28 SE17G25   29.79F
SHEBOYGAN      CLOUDY    61  35  37 S7        29.83F
WEST BEND      CLOUDY    63  25  23 SE8       29.82F
JUNEAU         CLOUDY    63  34  34 SE16      29.79F
$$

LSZ147-162-250000-
LAKE SUPERIOR

STATION/POSITION TIME  TEMP    WIND        PRES    WAVE
                       AIR SEA DIR/SP/G            HT/PER
                 (UTC) (F)     (DEG/KT/KT) (MB)    (FT/S)
DEVILS ISLAND    2300   36      50/ 29/ 32 1007.3F
SAXON HARBOR     2240   40     310/  9/ 11 1006.1S
$$

LMZ867-665-643>646-250000-
LAKE MICHIGAN

STATION/POSITION TIME  TEMP    WIND        PRES    WAVE
                       AIR SEA DIR/SP/G            HT/PER
                 (UTC) (F)     (DEG/KT/KT) (MB)    (FT/S)
CHAMBERS ISLAND  2230   47      70/  6/  9 1011.2F
N MID LAKE BUOY  2250   40 37   90/  8/ 10 1013.2F   2/ 4
NORTHPORT PIER   2240   41     100/  7/  9 1011.9F
SISTER BAY       2221   49     110/ 13/ 18   N/A
KEWAUNEE LAKESHO 2248   43      60/  3/  6 1010.7F
SHEBOYGAN LAKESH 2300   45     170/  5/  5 1010.4F
PORT WASHINGTON  2240   49     110/  3/  4 1011.5F
MILWAUKEE LAKESH 2250   48      60/  2/  2   N/A
S MID LAKE BUOY  2150   48 43   30/  6/  6 1011.8F   1/ 5
KENOSHA   LAKESH 2300   50      30/  2/  3 1010.2
$$

TC  - TEMPERATURE IN CELSIUS
VSB - VISIBILITY IN STATUTE MILES
WCI - WIND CHILL INDEX
HX  - HEAT INDEX





USA.gov is the U.S. government's official web portal to all federal, state and local government web resources and services.